Time,TemperatureF,DewpointF,PressureIn,WindDirection,WindDirectionDegrees,WindSpeedMPH,WindSpeedGustMPH,Humidity,HourlyPrecipIn,Conditions,Clouds,dailyrainin,SoftwareType,DateUTC
2013-07-06 00:01:00,70.4,63.6,29.99,SE,138,1.0,4.0,79,0.00,,,0.00,WeatherCatV1.15B25,2013-07-06 05:01:00,
2013-07-06 00:06:00,70.3,63.8,29.99,SE,144,2.0,4.0,80,0.00,,,0.00,WeatherCatV1.15B25,2013-07-06 05:06:00,
2013-07-06 00:11:00,70.1,63.6,29.99,ESE,107,4.0,4.0,80,0.00,,,0.00,WeatherCatV1.15B25,2013-07-06 05:11:00,
2013-07-06 00:16:00,70.0,63.5,29.99,ESE,117,1.0,3.0,80,0.00,,,0.00,WeatherCatV1.15B25,2013-07-06 05:16:00,
2013-07-06 00:21:00,69.9,63.8,29.99,SE,138,2.0,6.0,81,0.00,,,0.00,WeatherCatV1.15B25,2013-07-06 05:21:00,
2013-07-06 00:26:00,69.8,63.7,29.99,ESE,121,2.0,4.0,81,0.00,,,0.00,WeatherCatV1.15B25,2013-07-06 05:26:00,
2013-07-06 00:31:00,69.7,63.6,29.99,ESE,117,2.0,4.0,81,0.00,,,0.00,WeatherCatV1.15B25,2013-07-06 05:31:00,
2013-07-06 00:36:00,69.6,63.9,29.99,SE,134,3.0,6.0,82,0.00,,,0.00,WeatherCatV1.15B25,2013-07-06 05:36:00,
2013-07-06 00:37:00,69.6,63.9,29.99,SE,142,1.0,5.0,82,0.00,,,0.00,WeatherCatV1.15B25,2013-07-06 05:37:00,
2013-07-06 00:42:00,69.5,63.8,29.99,SE,144,1.0,4.0,82,0.00,,,0.00,WeatherCatV1.15B25,2013-07-06 05:42:00,
2013-07-06 00:46:00,69.5,63.8,29.99,SE,134,2.0,3.0,82,0.00,,,0.00,WeatherCatV1.15B25,2013-07-06 05:46:00,
2013-07-06 00:51:00,69.4,63.7,29.99,SE,133,3.0,6.0,82,0.00,,,0.00,WeatherCatV1.15B25,2013-07-06 05:51:00,
2013-07-06 00:56:00,69.3,63.6,29.99,SE,128,1.0,1.0,82,0.00,,,0.00,WeatherCatV1.15B25,2013-07-06 05:56:00,
2013-07-06 01:01:00,69.2,63.8,29.99,SSE,164,3.0,4.0,83,0.00,,,0.00,WeatherCatV1.15B25,2013-07-06 06:01:00,
2013-07-06 01:06:00,69.1,63.7,29.99,SE,137,0.0,3.0,83,0.00,,,0.00,WeatherCatV1.15B25,2013-07-06 06:06:00,
2013-07-06 01:11:00,69.0,63.6,29.99,ESE,103,1.0,3.0,83,0.00,,,0.00,WeatherCatV1.15B25,2013-07-06 06:11:00,
2013-07-06 01:16:00,68.8,63.4,29.99,SE,144,0.0,3.0,83,0.00,,,0.00,WeatherCatV1.15B25,2013-07-06 06:16:00,
2013-07-06 01:21:00,68.7,63.3,29.99,SSE,150,2.0,4.0,83,0.00,,,0.00,WeatherCatV1.15B25,2013-07-06 06:21:00,
2013-07-06 01:26:00,68.6,63.6,29.99,ESE,121,2.0,2.0,84,0.00,,,0.00,WeatherCatV1.15B25,2013-07-06 06:26:00,
2013-07-06 01:31:00,68.5,63.5,29.99,SSE,148,0.0,3.0,84,0.00,,,0.00,WeatherCatV1.15B25,2013-07-06 06:31:00,
2013-07-06 01:36:00,68.4,63.4,29.99,SSE,149,2.0,2.0,84,0.00,,,0.00,WeatherCatV1.15B25,2013-07-06 06:36:00,
2013-07-06 01:41:00,68.3,63.3,29.99,SSE,156,1.0,4.0,84,0.00,,,0.00,WeatherCatV1.15B25,2013-07-06 06:41:00,
2013-07-06 01:46:00,68.2,63.2,29.99,SSE,154,1.0,5.0,84,0.00,,,0.00,WeatherCatV1.15B25,2013-07-06 06:46:00,
2013-07-06 01:51:00,68.1,63.1,29.99,South,179,1.0,3.0,84,0.00,,,0.00,WeatherCatV1.15B25,2013-07-06 06:51:00,
2013-07-06 01:56:00,68.1,63.4,29.99,SSE,165,1.0,4.0,85,0.00,,,0.00,WeatherCatV1.15B25,2013-07-06 06:56:00,
2013-07-06 02:01:00,68.0,63.3,29.99,SE,146,0.0,4.0,85,0.00,,,0.00,WeatherCatV1.15B25,2013-07-06 07:01:00,
2013-07-06 02:06:00,68.0,63.3,29.99,SSE,150,3.0,3.0,85,0.00,,,0.00,WeatherCatV1.15B25,2013-07-06 07:06:00,
2013-07-06 02:11:00,67.9,63.2,29.99,SSE,149,1.0,3.0,85,0.00,,,0.00,WeatherCatV1.15B25,2013-07-06 07:11:00,
2013-07-06 02:16:00,67.8,63.1,29.99,SE,136,0.0,4.0,85,0.00,,,0.00,WeatherCatV1.15B25,2013-07-06 07:16:00,
2013-07-06 02:21:00,67.8,63.1,29.99,SE,129,4.0,5.0,85,0.00,,,0.00,WeatherCatV1.15B25,2013-07-06 07:21:00,
2013-07-06 02:26:00,67.8,63.1,29.99,SE,137,0.0,2.0,85,0.00,,,0.00,WeatherCatV1.15B25,2013-07-06 07:26:00,
2013-07-06 02:31:00,67.7,63.0,29.99,SSE,147,1.0,1.0,85,0.00,,,0.00,WeatherCatV1.15B25,2013-07-06 07:31:00,
2013-07-06 02:36:00,67.7,63.0,29.99,ESE,121,0.0,2.0,85,0.00,,,0.00,WeatherCatV1.15B25,2013-07-06 07:36:00,
2013-07-06 02:41:00,67.6,62.9,29.99,SSE,147,1.0,2.0,85,0.00,,,0.00,WeatherCatV1.15B25,2013-07-06 07:41:00,
2013-07-06 02:46:00,67.4,62.7,29.99,SSE,165,1.0,4.0,85,0.00,,,0.00,WeatherCatV1.15B25,2013-07-06 07:46:00,
2013-07-06 02:51:00,67.3,63.0,29.99,ESE,111,1.0,3.0,86,0.00,,,0.00,WeatherCatV1.15B25,2013-07-06 07:51:00,
2013-07-06 02:56:00,67.1,62.8,29.99,SE,125,1.0,3.0,86,0.00,,,0.00,WeatherCatV1.15B25,2013-07-06 07:56:00,
2013-07-06 03:01:00,67.0,62.7,29.99,SE,126,3.0,3.0,86,0.00,,,0.00,WeatherCatV1.15B25,2013-07-06 08:01:00,
2013-07-06 03:06:00,67.0,62.7,29.99,South,173,1.0,1.0,86,0.00,,,0.00,WeatherCatV1.15B25,2013-07-06 08:06:00,
2013-07-06 03:11:00,66.9,62.6,29.99,South,173,0.0,2.0,86,0.00,,,0.00,WeatherCatV1.15B25,2013-07-06 08:11:00,
2013-07-06 03:16:00,66.8,62.8,29.99,SSE,159,0.0,2.0,87,0.00,,,0.00,WeatherCatV1.15B25,2013-07-06 08:16:00,
2013-07-06 03:21:00,66.7,62.7,29.98,SSE,157,0.0,0.0,87,0.00,,,0.00,WeatherCatV1.15B25,2013-07-06 08:21:00,
2013-07-06 03:26:00,66.6,62.6,29.98,SSE,157,0.0,0.0,87,0.00,,,0.00,WeatherCatV1.15B25,2013-07-06 08:26:00,
2013-07-06 03:31:00,66.5,62.5,29.98,SSE,149,0.0,1.0,87,0.00,,,0.00,WeatherCatV1.15B25,2013-07-06 08:31:00,
2013-07-06 03:36:00,66.3,62.3,29.98,SE,144,0.0,1.0,87,0.00,,,0.00,WeatherCatV1.15B25,2013-07-06 08:36:00,
2013-07-06 03:41:00,66.1,62.1,29.98,SE,144,1.0,1.0,87,0.00,,,0.00,WeatherCatV1.15B25,2013-07-06 08:41:00,
2013-07-06 03:46:00,65.9,61.9,29.98,SE,144,0.0,0.0,87,0.00,,,0.00,WeatherCatV1.15B25,2013-07-06 08:46:00,
2013-07-06 03:51:00,65.7,61.7,29.98,SE,144,0.0,0.0,87,0.00,,,0.00,WeatherCatV1.15B25,2013-07-06 08:51:00,
2013-07-06 03:56:00,65.5,61.8,29.98,SE,144,0.0,1.0,88,0.00,,,0.00,WeatherCatV1.15B25,2013-07-06 08:56:00,
2013-07-06 04:01:00,65.4,62.1,29.98,SE,140,1.0,1.0,89,0.00,,,0.00,WeatherCatV1.15B25,2013-07-06 09:01:00,
2013-07-06 04:06:00,65.2,61.9,29.98,SE,140,0.0,1.0,89,0.00,,,0.00,WeatherCatV1.15B25,2013-07-06 09:06:00,
2013-07-06 04:11:00,65.1,61.8,29.98,SE,146,0.0,0.0,89,0.00,,,0.00,WeatherCatV1.15B25,2013-07-06 09:11:00,
2013-07-06 04:16:00,65.0,61.7,29.98,SE,146,0.0,1.0,89,0.00,,,0.00,WeatherCatV1.15B25,2013-07-06 09:16:00,
2013-07-06 04:21:00,65.0,62.0,29.97,SE,146,0.0,1.0,90,0.00,,,0.00,WeatherCatV1.15B25,2013-07-06 09:21:00,
2013-07-06 04:26:00,64.9,61.9,29.98,SE,136,0.0,1.0,90,0.00,,,0.00,WeatherCatV1.15B25,2013-07-06 09:26:00,
2013-07-06 04:31:00,64.9,61.9,29.98,SE,136,0.0,1.0,90,0.00,,,0.00,WeatherCatV1.15B25,2013-07-06 09:31:00,
2013-07-06 04:36:00,64.8,61.8,29.98,ESE,117,1.0,3.0,90,0.00,,,0.00,WeatherCatV1.15B25,2013-07-06 09:36:00,
2013-07-06 04:41:00,64.7,62.0,29.98,ESE,120,2.0,3.0,91,0.00,,,0.00,WeatherCatV1.15B25,2013-07-06 09:41:00,
2013-07-06 04:46:00,64.7,62.0,29.98,SE,127,0.0,1.0,91,0.00,,,0.00,WeatherCatV1.15B25,2013-07-06 09:46:00,
2013-07-06 04:51:00,64.7,62.0,29.97,SE,132,0.0,3.0,91,0.00,,,0.00,WeatherCatV1.15B25,2013-07-06 09:51:00,
2013-07-06 04:56:00,64.7,62.0,29.97,SE,132,0.0,1.0,91,0.00,,,0.00,WeatherCatV1.15B25,2013-07-06 09:56:00,
2013-07-06 05:01:00,64.7,62.0,29.97,SE,125,0.0,1.0,91,0.00,,,0.00,WeatherCatV1.15B25,2013-07-06 10:01:00,
2013-07-06 05:06:00,64.7,62.0,29.97,SE,125,0.0,0.0,91,0.00,,,0.00,WeatherCatV1.15B25,2013-07-06 10:06:00,
2013-07-06 05:11:00,64.6,61.9,29.97,SE,125,0.0,0.0,91,0.00,,,0.00,WeatherCatV1.15B25,2013-07-06 10:11:00,
2013-07-06 05:16:00,64.6,61.9,29.97,SE,125,0.0,0.0,91,0.00,,,0.00,WeatherCatV1.15B25,2013-07-06 10:16:00,
2013-07-06 05:21:00,64.5,61.8,29.97,ESE,121,0.0,0.0,91,0.00,,,0.00,WeatherCatV1.15B25,2013-07-06 10:21:00,
2013-07-06 05:26:00,64.3,61.6,29.97,SSE,161,0.0,0.0,91,0.00,,,0.00,WeatherCatV1.15B25,2013-07-06 10:26:00,
2013-07-06 05:31:00,64.3,61.9,29.97,SSW,192,1.0,2.0,92,0.00,,,0.00,WeatherCatV1.15B25,2013-07-06 10:31:00,
2013-07-06 05:36:00,64.3,61.9,29.97,ESE,115,0.0,2.0,92,0.00,,,0.00,WeatherCatV1.15B25,2013-07-06 10:36:00,
2013-07-06 05:41:00,64.3,61.9,29.97,SE,142,0.0,1.0,92,0.00,,,0.00,WeatherCatV1.15B25,2013-07-06 10:41:00,
2013-07-06 05:46:00,64.3,61.9,29.98,SE,127,0.0,0.0,92,0.00,,,0.00,WeatherCatV1.15B25,2013-07-06 10:46:00,
2013-07-06 05:51:00,64.2,61.8,29.98,South,184,0.0,0.0,92,0.00,,,0.00,WeatherCatV1.15B25,2013-07-06 10:51:00,
2013-07-06 05:56:00,64.2,61.8,29.98,ESE,105,0.0,1.0,92,0.00,,,0.00,WeatherCatV1.15B25,2013-07-06 10:56:00,
2013-07-06 06:01:00,64.1,61.7,29.98,SSE,156,0.0,0.0,92,0.00,,,0.00,WeatherCatV1.15B25,2013-07-06 11:01:00,
2013-07-06 06:06:00,64.0,61.6,29.98,SSW,199,1.0,1.0,92,0.00,,,0.00,WeatherCatV1.15B25,2013-07-06 11:06:00,
2013-07-06 06:11:00,64.0,61.6,29.99,South,175,0.0,0.0,92,0.00,,,0.00,WeatherCatV1.15B25,2013-07-06 11:11:00,
2013-07-06 06:16:00,63.9,61.5,29.99,ENE,76,0.0,0.0,92,0.00,,,0.00,WeatherCatV1.15B25,2013-07-06 11:16:00,
2013-07-06 06:21:00,63.8,61.7,29.99,NNE,27,0.0,0.0,93,0.00,,,0.00,WeatherCatV1.15B25,2013-07-06 11:21:00,
2013-07-06 06:26:00,63.8,61.7,29.99,NE,34,0.0,2.0,93,0.00,,,0.00,WeatherCatV1.15B25,2013-07-06 11:26:00,
2013-07-06 06:31:00,63.7,61.6,29.99,SE,129,1.0,1.0,93,0.00,,,0.00,WeatherCatV1.15B25,2013-07-06 11:31:00,
2013-07-06 06:36:00,63.7,61.6,29.99,SE,129,0.0,1.0,93,0.00,,,0.00,WeatherCatV1.15B25,2013-07-06 11:36:00,
2013-07-06 06:41:00,63.7,61.6,29.99,SE,130,0.0,0.0,93,0.00,,,0.00,WeatherCatV1.15B25,2013-07-06 11:41:00,
2013-07-06 06:46:00,63.7,61.6,29.99,North,9,0.0,0.0,93,0.00,,,0.00,WeatherCatV1.15B25,2013-07-06 11:46:00,
2013-07-06 06:51:00,63.9,62.1,29.99,ESE,112,1.0,1.0,94,0.00,,,0.00,WeatherCatV1.15B25,2013-07-06 11:51:00,
2013-07-06 06:56:00,64.0,62.2,29.99,SE,138,0.0,1.0,94,0.00,,,0.00,WeatherCatV1.15B25,2013-07-06 11:56:00,
2013-07-06 07:01:00,64.3,62.5,30.00,ESE,107,0.0,1.0,94,0.00,,,0.00,WeatherCatV1.15B25,2013-07-06 12:01:00,
2013-07-06 07:06:00,64.7,63.2,30.00,South,173,1.0,1.0,95,0.00,,,0.00,WeatherCatV1.15B25,2013-07-06 12:06:00,
2013-07-06 07:11:00,65.2,63.7,30.00,SSE,151,1.0,1.0,95,0.00,,,0.00,WeatherCatV1.15B25,2013-07-06 12:11:00,
2013-07-06 07:16:00,65.6,64.1,30.00,SSE,151,0.0,1.0,95,0.00,,,0.00,WeatherCatV1.15B25,2013-07-06 12:16:00,
2013-07-06 07:21:00,66.1,64.6,30.00,SE,132,0.0,0.0,95,0.00,,,0.00,WeatherCatV1.15B25,2013-07-06 12:21:00,
2013-07-06 07:26:00,66.5,64.7,30.00,SE,144,0.0,3.0,94,0.00,,,0.00,WeatherCatV1.15B25,2013-07-06 12:26:00,
2013-07-06 07:31:00,67.0,65.2,30.00,SE,126,0.0,1.0,94,0.00,,,0.00,WeatherCatV1.15B25,2013-07-06 12:31:00,
2013-07-06 07:36:00,67.4,65.6,30.00,SSE,167,0.0,1.0,94,0.00,,,0.00,WeatherCatV1.15B25,2013-07-06 12:36:00,
2013-07-06 07:41:00,67.9,65.8,30.00,SSE,154,1.0,2.0,93,0.00,,,0.00,WeatherCatV1.15B25,2013-07-06 12:41:00,
2013-07-06 07:46:00,68.3,66.2,30.00,SSE,157,0.0,2.0,93,0.00,,,0.00,WeatherCatV1.15B25,2013-07-06 12:46:00,
2013-07-06 07:51:00,68.9,66.5,30.01,ESE,122,2.0,3.0,92,0.00,,,0.00,WeatherCatV1.15B25,2013-07-06 12:51:00,
2013-07-06 07:56:00,69.2,66.5,30.01,SE,144,2.0,2.0,91,0.00,,,0.00,WeatherCatV1.15B25,2013-07-06 12:56:00,
2013-07-06 08:01:00,69.6,66.2,30.01,SE,145,3.0,6.0,89,0.00,,,0.00,WeatherCatV1.15B25,2013-07-06 13:01:00,
2013-07-06 08:06:00,70.1,66.7,30.01,SSE,148,3.0,4.0,89,0.00,,,0.00,WeatherCatV1.15B25,2013-07-06 13:06:00,
2013-07-06 08:11:00,70.4,66.7,30.01,SE,138,4.0,6.0,88,0.00,,,0.00,WeatherCatV1.15B25,2013-07-06 13:11:00,
2013-07-06 08:16:00,70.8,66.7,30.01,SSE,159,0.0,5.0,87,0.00,,,0.00,WeatherCatV1.15B25,2013-07-06 13:16:00,
2013-07-06 08:21:00,71.3,67.2,30.01,South,172,4.0,4.0,87,0.00,,,0.00,WeatherCatV1.15B25,2013-07-06 13:21:00,
2013-07-06 08:26:00,71.7,67.3,30.01,SSE,151,7.0,7.0,86,0.00,,,0.00,WeatherCatV1.15B25,2013-07-06 13:26:00,
2013-07-06 08:31:00,72.1,67.3,30.01,ESE,110,2.0,6.0,85,0.00,,,0.00,WeatherCatV1.15B25,2013-07-06 13:31:00,
2013-07-06 08:36:00,72.3,67.5,30.01,SE,126,4.0,4.0,85,0.00,,,0.00,WeatherCatV1.15B25,2013-07-06 13:36:00,
2013-07-06 08:41:00,72.7,67.6,30.01,ESE,118,0.0,5.0,84,0.00,,,0.00,WeatherCatV1.15B25,2013-07-06 13:41:00,
2013-07-06 08:46:00,73.1,68.0,30.01,SE,130,2.0,6.0,84,0.00,,,0.00,WeatherCatV1.15B25,2013-07-06 13:46:00,
2013-07-06 08:51:00,73.5,68.0,30.01,SSE,150,1.0,7.0,83,0.00,,,0.00,WeatherCatV1.15B25,2013-07-06 13:51:00,
2013-07-06 08:56:00,74.0,68.1,30.02,SE,130,6.0,6.0,82,0.00,,,0.00,WeatherCatV1.15B25,2013-07-06 13:56:00,
2013-07-06 09:01:00,74.4,67.8,30.02,ESE,113,4.0,6.0,80,0.00,,,0.00,WeatherCatV1.15B25,2013-07-06 14:01:00,
2013-07-06 09:06:00,74.8,68.2,30.02,SE,144,0.0,3.0,80,0.00,,,0.00,WeatherCatV1.15B25,2013-07-06 14:06:00,
2013-07-06 09:11:00,75.0,68.0,30.02,South,180,1.0,3.0,79,0.00,,,0.00,WeatherCatV1.15B25,2013-07-06 14:11:00,
2013-07-06 09:16:00,75.3,67.9,30.02,SE,131,4.0,4.0,78,0.00,,,0.00,WeatherCatV1.15B25,2013-07-06 14:16:00,
2013-07-06 09:21:00,75.7,68.3,30.02,SE,146,2.0,4.0,78,0.00,,,0.00,WeatherCatV1.15B25,2013-07-06 14:21:00,
2013-07-06 09:26:00,76.0,68.6,30.02,South,189,2.0,6.0,78,0.00,,,0.00,WeatherCatV1.15B25,2013-07-06 14:26:00,
2013-07-06 09:31:00,76.4,68.3,30.01,SSE,167,3.0,4.0,76,0.00,,,0.00,WeatherCatV1.15B25,2013-07-06 14:31:00,
2013-07-06 09:36:00,76.7,68.5,30.01,SSE,148,1.0,5.0,76,0.00,,,0.00,WeatherCatV1.15B25,2013-07-06 14:36:00,
2013-07-06 09:41:00,77.1,68.5,30.01,SW,234,1.0,2.0,75,0.00,,,0.00,WeatherCatV1.15B25,2013-07-06 14:41:00,
2013-07-06 09:46:00,77.6,68.2,30.01,SSE,156,2.0,3.0,73,0.00,,,0.00,WeatherCatV1.15B25,2013-07-06 14:46:00,
2013-07-06 09:51:00,77.9,68.1,30.01,SSW,197,2.0,3.0,72,0.00,,,0.00,WeatherCatV1.15B25,2013-07-06 14:51:00,
2013-07-06 09:56:00,78.5,69.1,30.01,South,185,4.0,4.0,73,0.00,,,0.00,WeatherCatV1.15B25,2013-07-06 14:56:00,
2013-07-06 10:01:00,78.9,68.3,30.01,South,169,1.0,7.0,70,0.00,,,0.00,WeatherCatV1.15B25,2013-07-06 15:01:00,
2013-07-06 10:06:00,79.4,68.7,30.01,South,169,1.0,6.0,70,0.00,,,0.00,WeatherCatV1.15B25,2013-07-06 15:06:00,
2013-07-06 10:11:00,79.6,68.1,30.01,ESE,104,0.0,3.0,68,0.00,,,0.00,WeatherCatV1.15B25,2013-07-06 15:11:00,
2013-07-06 10:16:00,80.1,68.6,30.01,WSW,254,3.0,8.0,68,0.00,,,0.00,WeatherCatV1.15B25,2013-07-06 15:16:00,
2013-07-06 10:21:00,80.7,68.3,30.01,SW,236,4.0,5.0,66,0.00,,,0.00,WeatherCatV1.15B25,2013-07-06 15:21:00,
2013-07-06 10:26:00,81.3,69.3,30.01,South,188,2.0,4.0,67,0.00,,,0.00,WeatherCatV1.15B25,2013-07-06 15:26:00,
2013-07-06 10:31:00,81.4,67.6,30.01,SW,221,1.0,3.0,63,0.00,,,0.00,WeatherCatV1.15B25,2013-07-06 15:31:00,
2013-07-06 10:36:00,81.3,68.4,30.01,South,171,1.0,1.0,65,0.00,,,0.00,WeatherCatV1.15B25,2013-07-06 15:36:00,
2013-07-06 10:41:00,81.5,68.6,30.01,SW,219,1.0,3.0,65,0.00,,,0.00,WeatherCatV1.15B25,2013-07-06 15:41:00,
2013-07-06 10:46:00,82.1,68.2,30.01,SW,225,1.0,3.0,63,0.00,,,0.00,WeatherCatV1.15B25,2013-07-06 15:46:00,
2013-07-06 10:51:00,82.5,67.7,30.01,SSW,206,0.0,4.0,61,0.00,,,0.00,WeatherCatV1.15B25,2013-07-06 15:51:00,
2013-07-06 10:56:00,82.8,67.9,30.01,SSW,198,2.0,4.0,61,0.00,,,0.00,WeatherCatV1.15B25,2013-07-06 15:56:00,
2013-07-06 11:01:00,83.5,69.1,30.01,SE,145,4.0,4.0,62,0.00,,,0.00,WeatherCatV1.15B25,2013-07-06 16:01:00,
2013-07-06 11:06:00,83.5,68.1,30.01,SSE,161,1.0,5.0,60,0.00,,,0.00,WeatherCatV1.15B25,2013-07-06 16:06:00,
2013-07-06 11:11:00,83.8,67.9,30.01,SW,222,3.0,3.0,59,0.00,,,0.00,WeatherCatV1.15B25,2013-07-06 16:11:00,
2013-07-06 11:16:00,84.2,67.3,30.01,SSW,202,2.0,5.0,57,0.00,,,0.00,WeatherCatV1.15B25,2013-07-06 16:16:00,
2013-07-06 11:21:00,84.5,67.6,30.00,WNW,294,4.0,4.0,57,0.00,,,0.00,WeatherCatV1.15B25,2013-07-06 16:21:00,
2013-07-06 11:26:00,85.1,67.1,30.00,SSE,155,2.0,3.0,55,0.00,,,0.00,WeatherCatV1.15B25,2013-07-06 16:26:00,
2013-07-06 11:31:00,84.7,67.2,30.00,SSE,157,1.0,6.0,56,0.00,,,0.00,WeatherCatV1.15B25,2013-07-06 16:31:00,
2013-07-06 11:36:00,84.5,67.0,30.00,South,170,4.0,4.0,56,0.00,,,0.00,WeatherCatV1.15B25,2013-07-06 16:36:00,
2013-07-06 11:41:00,84.7,67.7,30.00,South,173,0.0,4.0,57,0.00,,,0.00,WeatherCatV1.15B25,2013-07-06 16:41:00,
2013-07-06 11:46:00,84.8,65.7,30.00,ESE,121,3.0,5.0,53,0.00,,,0.00,WeatherCatV1.15B25,2013-07-06 16:46:00,
2013-07-06 11:51:00,84.9,65.8,30.00,West,260,2.0,4.0,53,0.00,,,0.00,WeatherCatV1.15B25,2013-07-06 16:51:00,
2013-07-06 11:56:00,85.4,66.8,30.00,South,186,0.0,2.0,54,0.00,,,0.00,WeatherCatV1.15B25,2013-07-06 16:56:00,
2013-07-06 12:01:00,86.0,66.3,30.00,WSW,249,3.0,5.0,52,0.00,,,0.00,WeatherCatV1.15B25,2013-07-06 17:01:00,
2013-07-06 12:06:00,86.5,66.8,30.00,West,259,3.0,6.0,52,0.00,,,0.00,WeatherCatV1.15B25,2013-07-06 17:06:00,
2013-07-06 12:11:00,86.4,66.1,30.00,SW,233,5.0,7.0,51,0.00,,,0.00,WeatherCatV1.15B25,2013-07-06 17:11:00,
2013-07-06 12:16:00,86.4,66.1,30.00,South,172,0.0,4.0,51,0.00,,,0.00,WeatherCatV1.15B25,2013-07-06 17:16:00,
2013-07-06 12:21:00,86.7,65.8,29.99,NW,313,3.0,5.0,50,0.00,,,0.00,WeatherCatV1.15B25,2013-07-06 17:21:00,
2013-07-06 12:26:00,86.9,65.4,29.99,South,175,3.0,7.0,49,0.00,,,0.00,WeatherCatV1.15B25,2013-07-06 17:26:00,
2013-07-06 12:31:00,87.0,65.5,29.99,SW,232,2.0,6.0,49,0.00,,,0.00,WeatherCatV1.15B25,2013-07-06 17:31:00,
2013-07-06 12:36:00,87.4,65.9,29.99,WSW,240,1.0,4.0,49,0.00,,,0.00,WeatherCatV1.15B25,2013-07-06 17:36:00,
2013-07-06 12:41:00,87.5,64.1,29.99,SSW,205,5.0,7.0,46,0.00,,,0.00,WeatherCatV1.15B25,2013-07-06 17:41:00,
2013-07-06 12:46:00,87.7,64.9,29.99,SW,218,6.0,6.0,47,0.00,,,0.00,WeatherCatV1.15B25,2013-07-06 17:46:00,
2013-07-06 12:51:00,88.0,64.6,29.98,SSW,202,4.0,5.0,46,0.00,,,0.00,WeatherCatV1.15B25,2013-07-06 17:51:00,
2013-07-06 12:56:00,88.2,64.1,29.98,WNW,291,2.0,7.0,45,0.00,,,0.00,WeatherCatV1.15B25,2013-07-06 17:56:00,
2013-07-06 13:01:00,88.2,64.8,29.98,WSW,256,2.0,5.0,46,0.00,,,0.00,WeatherCatV1.15B25,2013-07-06 18:01:00,
2013-07-06 13:06:00,88.1,64.7,29.98,South,180,3.0,3.0,46,0.00,,,0.00,WeatherCatV1.15B25,2013-07-06 18:06:00,
2013-07-06 13:12:00,88.1,64.0,29.98,SSW,202,1.0,6.0,45,0.00,,,0.00,WeatherCatV1.15B25,2013-07-06 18:12:00,
2013-07-06 13:17:00,88.2,64.1,29.98,SSE,150,2.0,7.0,45,0.00,,,0.00,WeatherCatV1.15B25,2013-07-06 18:17:00,
2013-07-06 13:22:00,87.4,64.7,29.97,SSW,210,2.0,5.0,47,0.00,,,0.00,WeatherCatV1.15B25,2013-07-06 18:22:00,
2013-07-06 13:27:00,87.5,63.5,29.97,SE,142,3.0,3.0,45,0.00,,,0.00,WeatherCatV1.15B25,2013-07-06 18:27:00,
2013-07-06 13:32:00,87.6,65.4,29.97,SW,218,2.0,2.0,48,0.00,,,0.00,WeatherCatV1.15B25,2013-07-06 18:32:00,
2013-07-06 13:37:00,87.7,64.9,29.97,West,276,1.0,2.0,47,0.00,,,0.00,WeatherCatV1.15B25,2013-07-06 18:37:00,
2013-07-06 13:42:00,87.6,64.8,29.96,WSW,254,3.0,5.0,47,0.00,,,0.00,WeatherCatV1.15B25,2013-07-06 18:42:00,
2013-07-06 13:47:00,87.8,65.6,29.96,SSW,198,2.0,4.0,48,0.00,,,0.00,WeatherCatV1.15B25,2013-07-06 18:47:00,
2013-07-06 13:52:00,87.7,64.9,29.96,SE,130,0.0,5.0,47,0.00,,,0.00,WeatherCatV1.15B25,2013-07-06 18:52:00,
2013-07-06 13:57:00,87.4,64.7,29.96,SSE,149,1.0,2.0,47,0.00,,,0.00,WeatherCatV1.15B25,2013-07-06 18:57:00,
2013-07-06 14:02:00,87.4,64.0,29.95,ESE,119,1.0,3.0,46,0.00,,,0.00,WeatherCatV1.15B25,2013-07-06 19:02:00,
2013-07-06 14:07:00,87.3,64.0,29.95,South,186,5.0,5.0,46,0.00,,,0.00,WeatherCatV1.15B25,2013-07-06 19:07:00,
2013-07-06 14:12:00,87.4,62.8,29.95,NE,48,3.0,5.0,44,0.00,,,0.00,WeatherCatV1.15B25,2013-07-06 19:12:00,
2013-07-06 14:17:00,87.9,63.2,29.95,SSE,148,3.0,3.0,44,0.00,,,0.00,WeatherCatV1.15B25,2013-07-06 19:17:00,
2013-07-06 14:22:00,87.9,63.2,29.95,SE,144,0.0,0.0,44,0.00,,,0.00,WeatherCatV1.15B25,2013-07-06 19:22:00,
2013-07-06 14:27:00,88.4,64.9,29.95,ESE,109,5.0,6.0,46,0.00,,,0.00,WeatherCatV1.15B25,2013-07-06 19:27:00,
2013-07-06 14:32:00,88.3,64.2,29.94,ENE,69,7.0,7.0,45,0.00,,,0.00,WeatherCatV1.15B25,2013-07-06 19:32:00,
2013-07-06 14:37:00,88.1,65.9,29.94,SE,129,4.0,4.0,48,0.00,,,0.00,WeatherCatV1.15B25,2013-07-06 19:37:00,
2013-07-06 14:42:00,88.2,64.8,29.94,SSW,205,2.0,5.0,46,0.00,,,0.00,WeatherCatV1.15B25,2013-07-06 19:42:00,
2013-07-06 14:47:00,88.2,64.1,29.94,SE,134,4.0,6.0,45,0.00,,,0.00,WeatherCatV1.15B25,2013-07-06 19:47:00,
2013-07-06 14:52:00,88.3,64.9,29.94,SSE,160,0.0,6.0,46,0.00,,,0.00,WeatherCatV1.15B25,2013-07-06 19:52:00,
2013-07-06 14:57:00,88.5,63.8,29.94,SSE,150,2.0,4.0,44,0.00,,,0.00,WeatherCatV1.15B25,2013-07-06 19:57:00,
2013-07-06 15:02:00,88.8,64.7,29.94,South,188,2.0,6.0,45,0.00,,,0.00,WeatherCatV1.15B25,2013-07-06 20:02:00,
2013-07-06 15:07:00,89.1,63.0,29.94,SSW,193,1.0,5.0,42,0.00,,,0.00,WeatherCatV1.15B25,2013-07-06 20:07:00,
2013-07-06 15:12:00,89.4,61.1,29.94,North,9,2.0,3.0,39,0.00,,,0.00,WeatherCatV1.15B25,2013-07-06 20:12:00,
2013-07-06 15:17:00,89.6,62.0,29.93,East,80,6.0,6.0,40,0.00,,,0.00,WeatherCatV1.15B25,2013-07-06 20:17:00,
2013-07-06 15:22:00,89.0,62.2,29.94,SE,137,2.0,5.0,41,0.00,,,0.00,WeatherCatV1.15B25,2013-07-06 20:22:00,
2013-07-06 15:27:00,88.7,63.3,29.93,South,181,1.0,2.0,43,0.00,,,0.00,WeatherCatV1.15B25,2013-07-06 20:27:00,
2013-07-06 15:32:00,89.0,63.6,29.93,South,169,5.0,10.0,43,0.00,,,0.00,WeatherCatV1.15B25,2013-07-06 20:32:00,
2013-07-06 15:37:00,89.1,62.3,29.93,South,180,0.0,2.0,41,0.00,,,0.00,WeatherCatV1.15B25,2013-07-06 20:37:00,
2013-07-06 15:42:00,89.5,64.7,29.93,SE,140,7.0,7.0,44,0.00,,,0.00,WeatherCatV1.15B25,2013-07-06 20:42:00,
2013-07-06 15:47:00,89.1,62.3,29.93,ESE,118,3.0,7.0,41,0.00,,,0.00,WeatherCatV1.15B25,2013-07-06 20:47:00,
2013-07-06 15:52:00,88.9,62.8,29.93,SE,126,5.0,13.0,42,0.00,,,0.00,WeatherCatV1.15B25,2013-07-06 20:52:00,
2013-07-06 15:57:00,89.1,64.3,29.93,ESE,112,2.0,4.0,44,0.00,,,0.00,WeatherCatV1.15B25,2013-07-06 20:57:00,
2013-07-06 16:02:00,88.8,62.7,29.93,SE,132,3.0,6.0,42,0.00,,,0.00,WeatherCatV1.15B25,2013-07-06 21:02:00,
2013-07-06 16:07:00,88.6,65.1,29.93,SSE,147,0.0,1.0,46,0.00,,,0.00,WeatherCatV1.15B25,2013-07-06 21:07:00,
2013-07-06 16:12:00,88.6,62.5,29.93,SSE,163,0.0,5.0,42,0.00,,,0.00,WeatherCatV1.15B25,2013-07-06 21:12:00,
2013-07-06 16:17:00,88.5,63.8,29.93,SE,132,1.0,2.0,44,0.00,,,0.00,WeatherCatV1.15B25,2013-07-06 21:17:00,
2013-07-06 16:22:00,88.5,64.4,29.93,SSE,161,3.0,4.0,45,0.00,,,0.00,WeatherCatV1.15B25,2013-07-06 21:22:00,
2013-07-06 16:27:00,88.4,61.7,29.93,SSW,209,4.0,4.0,41,0.00,,,0.00,WeatherCatV1.15B25,2013-07-06 21:27:00,
2013-07-06 16:32:00,88.7,63.3,29.93,SSE,151,4.0,8.0,43,0.00,,,0.00,WeatherCatV1.15B25,2013-07-06 21:32:00,
2013-07-06 16:37:00,88.8,62.7,29.93,South,190,3.0,6.0,42,0.00,,,0.00,WeatherCatV1.15B25,2013-07-06 21:37:00,
2013-07-06 16:42:00,89.1,61.6,29.93,SSE,166,2.0,6.0,40,0.00,,,0.00,WeatherCatV1.15B25,2013-07-06 21:42:00,
2013-07-06 16:47:00,89.2,62.4,29.92,SSE,157,1.0,7.0,41,0.00,,,0.00,WeatherCatV1.15B25,2013-07-06 21:47:00,
2013-07-06 16:52:00,89.3,62.5,29.92,SSE,162,3.0,6.0,41,0.00,,,0.00,WeatherCatV1.15B25,2013-07-06 21:52:00,
2013-07-06 16:57:00,88.9,62.1,29.92,SW,226,2.0,5.0,41,0.00,,,0.00,WeatherCatV1.15B25,2013-07-06 21:57:00,
2013-07-06 17:02:00,88.2,60.8,29.93,South,176,1.0,7.0,40,0.00,,,0.00,WeatherCatV1.15B25,2013-07-06 22:02:00,
2013-07-06 17:07:00,87.9,62.6,29.92,SE,138,0.0,1.0,43,0.00,,,0.00,WeatherCatV1.15B25,2013-07-06 22:07:00,
2013-07-06 17:12:00,87.7,63.0,29.92,ESE,121,1.0,2.0,44,0.00,,,0.00,WeatherCatV1.15B25,2013-07-06 22:12:00,
2013-07-06 17:17:00,87.8,65.0,29.92,SE,130,2.0,2.0,47,0.00,,,0.00,WeatherCatV1.15B25,2013-07-06 22:17:00,
2013-07-06 17:22:00,87.9,62.6,29.92,East,88,3.0,6.0,43,0.00,,,0.00,WeatherCatV1.15B25,2013-07-06 22:22:00,
2013-07-06 17:27:00,87.8,62.5,29.92,SSE,147,6.0,6.0,43,0.00,,,0.00,WeatherCatV1.15B25,2013-07-06 22:27:00,
2013-07-06 17:32:00,87.9,61.9,29.92,SE,145,5.0,6.0,42,0.00,,,0.00,WeatherCatV1.15B25,2013-07-06 22:32:00,
2013-07-06 17:37:00,88.0,64.0,29.92,SSW,200,3.0,4.0,45,0.00,,,0.00,WeatherCatV1.15B25,2013-07-06 22:37:00,
2013-07-06 17:42:00,88.2,63.5,29.92,SE,141,5.0,5.0,44,0.00,,,0.00,WeatherCatV1.15B25,2013-07-06 22:42:00,
2013-07-06 17:47:00,88.5,65.7,29.92,South,190,4.0,4.0,47,0.00,,,0.00,WeatherCatV1.15B25,2013-07-06 22:47:00,
2013-07-06 17:52:00,88.3,62.9,29.92,ESE,123,2.0,6.0,43,0.00,,,0.00,WeatherCatV1.15B25,2013-07-06 22:52:00,
2013-07-06 17:57:00,88.2,63.5,29.92,South,169,1.0,3.0,44,0.00,,,0.00,WeatherCatV1.15B25,2013-07-06 22:57:00,
2013-07-06 18:02:00,88.1,63.4,29.92,SE,144,5.0,6.0,44,0.00,,,0.00,WeatherCatV1.15B25,2013-07-06 23:02:00,
2013-07-06 18:07:00,87.8,63.8,29.92,SSE,151,1.0,1.0,45,0.00,,,0.00,WeatherCatV1.15B25,2013-07-06 23:07:00,
2013-07-06 18:12:00,87.6,64.2,29.92,SSE,157,0.0,1.0,46,0.00,,,0.00,WeatherCatV1.15B25,2013-07-06 23:12:00,
2013-07-06 18:17:00,87.5,65.9,29.92,South,183,0.0,1.0,49,0.00,,,0.00,WeatherCatV1.15B25,2013-07-06 23:17:00,
2013-07-06 18:22:00,87.4,65.3,29.92,South,169,0.0,1.0,48,0.00,,,0.00,WeatherCatV1.15B25,2013-07-06 23:22:00,
2013-07-06 18:27:00,87.2,63.9,29.92,SSW,198,0.0,2.0,46,0.00,,,0.00,WeatherCatV1.15B25,2013-07-06 23:27:00,
2013-07-06 18:32:00,87.1,62.5,29.92,SSE,158,2.0,6.0,44,0.00,,,0.00,WeatherCatV1.15B25,2013-07-06 23:32:00,
2013-07-06 18:37:00,86.9,64.2,29.92,South,184,0.0,3.0,47,0.00,,,0.00,WeatherCatV1.15B25,2013-07-06 23:37:00,
2013-07-06 18:42:00,86.6,62.1,29.92,South,169,0.0,4.0,44,0.00,,,0.00,WeatherCatV1.15B25,2013-07-06 23:42:00,
2013-07-06 18:47:00,86.4,63.1,29.92,SE,136,2.0,2.0,46,0.00,,,0.00,WeatherCatV1.15B25,2013-07-06 23:47:00,
2013-07-06 18:52:00,86.2,63.0,29.92,SE,142,0.0,1.0,46,0.00,,,0.00,WeatherCatV1.15B25,2013-07-06 23:52:00,
2013-07-06 18:57:00,86.1,66.9,29.92,South,171,1.0,2.0,53,0.00,,,0.00,WeatherCatV1.15B25,2013-07-06 23:57:00,
2013-07-06 19:02:00,85.7,66.0,29.92,South,171,0.0,1.0,52,0.00,,,0.00,WeatherCatV1.15B25,2013-07-07 00:02:00,
2013-07-06 19:07:00,85.2,64.4,29.92,SE,144,0.0,0.0,50,0.00,,,0.00,WeatherCatV1.15B25,2013-07-07 00:07:00,
2013-07-06 19:12:00,85.0,67.0,29.92,SSE,159,0.0,0.0,55,0.00,,,0.00,WeatherCatV1.15B25,2013-07-07 00:12:00,
2013-07-06 19:17:00,84.6,68.7,29.92,South,175,0.0,0.0,59,0.00,,,0.00,WeatherCatV1.15B25,2013-07-07 00:17:00,
2013-07-06 19:22:00,84.1,69.2,29.92,South,175,0.0,0.0,61,0.00,,,0.00,WeatherCatV1.15B25,2013-07-07 00:22:00,
2013-07-06 19:27:00,83.6,68.7,29.92,South,175,0.0,0.0,61,0.00,,,0.00,WeatherCatV1.15B25,2013-07-07 00:27:00,
2013-07-06 19:32:00,83.1,67.7,29.92,South,174,0.0,0.0,60,0.00,,,0.00,WeatherCatV1.15B25,2013-07-07 00:32:00,
2013-07-06 19:37:00,82.6,67.8,29.92,ESE,122,0.0,1.0,61,0.00,,,0.00,WeatherCatV1.15B25,2013-07-07 00:37:00,
2013-07-06 19:42:00,82.1,67.3,29.93,NNW,347,0.0,0.0,61,0.00,,,0.00,WeatherCatV1.15B25,2013-07-07 00:42:00,
2013-07-06 19:47:00,81.6,66.8,29.93,NNE,26,0.0,0.0,61,0.00,,,0.00,WeatherCatV1.15B25,2013-07-07 00:47:00,
2013-07-06 19:52:00,81.1,66.8,29.93,ESE,123,0.0,0.0,62,0.00,,,0.00,WeatherCatV1.15B25,2013-07-07 00:52:00,
2013-07-06 19:57:00,80.7,67.4,29.93,ESE,107,0.0,0.0,64,0.00,,,0.00,WeatherCatV1.15B25,2013-07-07 00:57:00,
2013-07-06 20:02:00,80.4,68.4,29.93,SW,234,0.0,0.0,67,0.00,,,0.00,WeatherCatV1.15B25,2013-07-07 01:02:00,
2013-07-06 20:07:00,80.0,68.9,29.93,SSW,212,0.0,0.0,69,0.00,,,0.00,WeatherCatV1.15B25,2013-07-07 01:07:00,
2013-07-06 20:12:00,79.5,68.4,29.93,ESE,104,0.0,0.0,69,0.00,,,0.00,WeatherCatV1.15B25,2013-07-07 01:12:00,
2013-07-06 20:17:00,79.0,68.4,29.93,SSE,159,0.0,0.0,70,0.00,,,0.00,WeatherCatV1.15B25,2013-07-07 01:17:00,
2013-07-06 20:22:00,78.3,67.7,29.93,SSE,159,0.0,0.0,70,0.00,,,0.00,WeatherCatV1.15B25,2013-07-07 01:22:00,
2013-07-06 20:27:00,77.8,68.0,29.93,South,175,0.0,0.0,72,0.00,,,0.00,WeatherCatV1.15B25,2013-07-07 01:27:00,
2013-07-06 20:32:00,77.2,67.0,29.93,South,175,0.0,0.0,71,0.00,,,0.00,WeatherCatV1.15B25,2013-07-07 01:32:00,
2013-07-06 20:37:00,76.6,66.5,29.93,South,175,0.0,0.0,71,0.00,,,0.00,WeatherCatV1.15B25,2013-07-07 01:37:00,
2013-07-06 20:42:00,76.0,66.7,29.94,South,175,0.0,0.0,73,0.00,,,0.00,WeatherCatV1.15B25,2013-07-07 01:42:00,
2013-07-06 20:47:00,75.7,66.4,29.93,South,175,0.0,0.0,73,0.00,,,0.00,WeatherCatV1.15B25,2013-07-07 01:47:00,
2013-07-06 20:52:00,75.4,66.5,29.94,South,175,0.0,0.0,74,0.00,,,0.00,WeatherCatV1.15B25,2013-07-07 01:52:00,
2013-07-06 20:57:00,74.9,66.4,29.94,South,175,0.0,0.0,75,0.00,,,0.00,WeatherCatV1.15B25,2013-07-07 01:57:00,
2013-07-06 21:02:00,74.4,66.3,29.94,South,175,0.0,0.0,76,0.00,,,0.00,WeatherCatV1.15B25,2013-07-07 02:02:00,
2013-07-06 21:07:00,74.0,66.3,29.94,South,175,0.0,0.0,77,0.00,,,0.00,WeatherCatV1.15B25,2013-07-07 02:07:00,
2013-07-06 21:12:00,73.6,65.9,29.94,South,175,0.0,0.0,77,0.00,,,0.00,WeatherCatV1.15B25,2013-07-07 02:12:00,
2013-07-06 21:17:00,73.2,65.9,29.94,South,175,0.0,0.0,78,0.00,,,0.00,WeatherCatV1.15B25,2013-07-07 02:17:00,
2013-07-06 21:22:00,72.8,65.9,29.94,South,175,0.0,0.0,79,0.00,,,0.00,WeatherCatV1.15B25,2013-07-07 02:22:00,
2013-07-06 21:27:00,72.5,65.6,29.95,South,175,0.0,0.0,79,0.00,,,0.00,WeatherCatV1.15B25,2013-07-07 02:27:00,
2013-07-06 21:32:00,72.2,65.3,29.95,South,175,0.0,0.0,79,0.00,,,0.00,WeatherCatV1.15B25,2013-07-07 02:32:00,
2013-07-06 21:37:00,71.9,65.4,29.95,South,175,0.0,0.0,80,0.00,,,0.00,WeatherCatV1.15B25,2013-07-07 02:37:00,
2013-07-06 21:40:00,71.7,65.5,29.95,South,175,0.0,0.0,81,0.00,,,0.00,WeatherCatV1.15B25,2013-07-07 02:40:00,
2013-07-06 21:45:00,71.4,65.3,29.96,South,175,0.0,1.0,81,0.00,,,0.00,WeatherCatV1.15B25,2013-07-07 02:45:00,
2013-07-06 21:50:00,71.2,65.1,29.96,South,175,0.0,0.0,81,0.00,,,0.00,WeatherCatV1.15B25,2013-07-07 02:50:00,
2013-07-06 21:55:00,71.0,64.9,29.96,South,175,0.0,1.0,81,0.00,,,0.00,WeatherCatV1.15B25,2013-07-07 02:55:00,
2013-07-06 22:00:00,70.7,64.6,29.96,South,175,0.0,0.0,81,0.00,,,0.00,WeatherCatV1.15B25,2013-07-07 03:00:00,
2013-07-06 22:05:00,70.6,64.5,29.96,South,175,0.0,1.0,81,0.00,,,0.00,WeatherCatV1.15B25,2013-07-07 03:05:00,
2013-07-06 22:10:00,70.5,64.4,29.96,South,175,0.0,0.0,81,0.00,,,0.00,WeatherCatV1.15B25,2013-07-07 03:10:00,
2013-07-06 22:15:00,70.4,64.3,29.97,South,175,0.0,0.0,81,0.00,,,0.00,WeatherCatV1.15B25,2013-07-07 03:15:00,
2013-07-06 22:20:00,70.4,63.9,29.97,South,175,0.0,0.0,80,0.00,,,0.00,WeatherCatV1.15B25,2013-07-07 03:20:00,
2013-07-06 22:25:00,70.4,64.3,29.97,SSE,152,0.0,1.0,81,0.00,,,0.00,WeatherCatV1.15B25,2013-07-07 03:25:00,
2013-07-06 22:30:00,70.4,64.6,29.98,SSE,150,0.0,0.0,82,0.00,,,0.00,WeatherCatV1.15B25,2013-07-07 03:30:00,
2013-07-06 22:35:00,70.4,64.6,29.98,SSE,150,0.0,0.0,82,0.00,,,0.00,WeatherCatV1.15B25,2013-07-07 03:35:00,
2013-07-06 22:40:00,70.4,64.6,29.98,SSE,150,0.0,0.0,82,0.00,,,0.00,WeatherCatV1.15B25,2013-07-07 03:40:00,
2013-07-06 22:45:00,70.3,64.5,29.98,SSE,150,0.0,0.0,82,0.00,,,0.00,WeatherCatV1.15B25,2013-07-07 03:45:00,
2013-07-06 22:50:00,70.3,64.5,29.98,SSE,150,0.0,0.0,82,0.00,,,0.00,WeatherCatV1.15B25,2013-07-07 03:50:00,
2013-07-06 22:55:00,70.2,64.4,29.98,SSE,150,0.0,0.0,82,0.00,,,0.00,WeatherCatV1.15B25,2013-07-07 03:55:00,
2013-07-06 23:00:00,70.1,64.3,29.98,SSE,150,0.0,0.0,82,0.00,,,0.00,WeatherCatV1.15B25,2013-07-07 04:00:00,
2013-07-06 23:01:00,70.0,64.2,29.98,SSE,150,0.0,0.0,82,0.00,,,0.00,WeatherCatV1.15B25,2013-07-07 04:01:00,
2013-07-06 23:06:00,69.9,64.5,29.98,SSE,150,0.0,0.0,83,0.00,,,0.00,WeatherCatV1.15B25,2013-07-07 04:06:00,
2013-07-06 23:11:00,69.8,64.4,29.98,SSE,150,0.0,0.0,83,0.00,,,0.00,WeatherCatV1.15B25,2013-07-07 04:11:00,
2013-07-06 23:16:00,69.6,64.2,29.98,SSE,150,0.0,0.0,83,0.00,,,0.00,WeatherCatV1.15B25,2013-07-07 04:16:00,
2013-07-06 23:21:00,69.4,64.0,29.98,SSE,150,0.0,0.0,83,0.00,,,0.00,WeatherCatV1.15B25,2013-07-07 04:21:00,
2013-07-06 23:26:00,69.4,64.0,29.98,SSE,150,0.0,0.0,83,0.00,,,0.00,WeatherCatV1.15B25,2013-07-07 04:26:00,
2013-07-06 23:31:00,69.2,64.2,29.98,SSE,150,0.0,0.0,84,0.00,,,0.00,WeatherCatV1.15B25,2013-07-07 04:31:00,
2013-07-06 23:36:00,69.0,64.0,29.98,SSE,150,0.0,0.0,84,0.00,,,0.00,WeatherCatV1.15B25,2013-07-07 04:36:00,
2013-07-06 23:41:00,68.9,64.2,29.98,SSE,150,0.0,0.0,85,0.00,,,0.00,WeatherCatV1.15B25,2013-07-07 04:41:00,
2013-07-06 23:46:00,68.7,64.0,29.98,SSE,150,0.0,0.0,85,0.00,,,0.00,WeatherCatV1.15B25,2013-07-07 04:46:00,
2013-07-06 23:51:00,68.6,64.2,29.98,SSE,150,0.0,0.0,86,0.00,,,0.00,WeatherCatV1.15B25,2013-07-07 04:51:00,
2013-07-06 23:56:00,68.5,64.1,29.98,SSE,150,0.0,0.0,86,0.00,,,0.00,WeatherCatV1.15B25,2013-07-07 04:56:00,